Highlands Peak, California Weather observations

Data are for observation ending at time listed.
 Day   Time    Ave.   Ave.  Ave.  Vector   Max.   Stn.    Total    Solar   Ave.  
  of    of     Air    Rel.  Wind   Wind    Wind   Baro.  Precip.   Rad.    Soil  
Year   Day     Temp.  Hum.  Speed  Dir.    Gust   Pres.                    Temp. 
2026   (PST)    F      %     mph   deg.    mph     mb.     in.     W/m2     F   
------------------------------------------------------------------------------
 243   14:20   58.1    76    2.9   252      6.1   928.3    0.00     717    76.8
 243   14:30   59.7    71    3.1   239      6.2   928.2    0.00     704    77.0
 243   14:40   59.8    71    3.8   250      6.2   928.1    0.00     696    77.2
 243   14:50   59.4    72    4.5   239      8.1   928.0    0.00     634    77.5
 243   15:00   58.4    75    4.2   230      7.6   927.9    0.00     607    77.8
 243   15:10   57.8    76    4.1   258      8.6   927.8    0.00     535    78.0
 243   15:20   57.1    78    3.8   233      6.8   927.8    0.00     535    78.3
 243   15:30   56.8    79    4.2   248      6.3   927.8    0.00     541    78.5
 243   15:40   56.6    80    4.2   257      7.2   927.8    0.00     527    78.7
 243   15:50   56.2    82    3.0   254      7.7   927.8    0.00     511    78.9
 243   16:00   56.6    81    3.5   259      5.9   927.6    0.00     440    79.1
 243   16:10   56.0    82    3.7   255      6.3   927.6    0.00     432    79.2
 243   16:20   55.7    84    5.0   238      8.5   927.6    0.00     389    79.4
 243   16:30   55.9    83    6.3   230     11.3   927.6    0.00     290    79.7
 243   16:40   54.4    86    7.0   239     10.7   927.6    0.00     218    79.8
 243   16:50   53.3    90    7.2   239     10.6   927.5    0.00     206    80.0
 243   17:00   53.2    91    5.8   236      9.1   927.4    0.00     135    80.0
 243   17:10   52.7    93    4.7   235      8.8   927.5    0.00      98    80.1
 243   17:20   52.6    94    2.2   221      4.3   927.4    0.00     125    80.1
 243   17:30   52.1    96    1.8   264      3.6   927.2    0.00      84    80.1
 243   17:40   52.8    96    0.5    89      1.6   927.1    0.00      98    80.2
 243   17:50   53.0    94    1.5   214      3.4   927.2    0.00     100    80.2
 243   18:00   52.6    95    2.4    18      5.9   927.1    0.00      97    80.2
 243   18:10   52.9    95    8.0    16     11.4   926.8    0.00      99    80.3
 243   18:20   52.5    96    5.3   233      9.6   927.2    0.00      27    80.2
 243   18:30   51.4   100    2.3   245      4.1   927.2    0.00      14    80.1
 243   18:40   51.0   100    2.4   232      4.3   927.2    0.00       6    80.0
 243   18:50   50.6   100    0.9   200      2.8   927.3    0.00       2    80.0
 243   19:00   50.5   100    1.9   229      5.6   927.4    0.00       0    80.0
 243   19:10   50.3   100    1.6   324      5.5   927.3    0.00       0    80.0
 243   19:20   49.7   100    2.9    31      6.0   927.2    0.00       0    80.0
 243   19:30   49.5   100    1.8   120      3.7   927.4    0.00       0    80.0
 243   19:40   49.2   100    3.2    56      5.3   927.3    0.00       0    80.0
 243   19:50   49.0   100    2.1    79      5.0   927.5    0.00       0    79.9
 243   20:00   48.7   100    4.2    62      5.4   927.6    0.00       0    80.0
 243   20:10   48.7   103    2.9   182      5.2   927.7    0.00       0    79.8
 243   20:20   48.6   108    1.9    86      3.9   927.8    0.00       0    79.8
 243   20:30   49.0   108    1.9   190      5.6   928.0    0.00       0    79.6
 243   20:40   48.9   108    0.9    26      3.1   928.1    0.00       0    79.6
 243   20:50   49.0   109    2.3   326      5.3   928.0    0.00       0    79.5
 243   21:00   49.0   109    4.1   280      6.3   928.0    0.00       0    79.3
 243   21:10   49.3   109    5.2   289      7.2   928.0    0.00       0    79.2
 243   21:20   49.4   109    4.2   288      5.1   928.0    0.00       0    79.2
 243   21:30   49.5   109    3.5   263      4.8   928.1    0.00       0    79.1
 243   21:40   50.0   109    2.6   278      4.1   928.2    0.00       0    78.9
 243   21:50   50.1   109    3.4   318      4.7   928.1    0.00       0    78.9
 243   22:00   50.7   107    2.6   330      4.9   928.0    0.00       0    78.8
 243   22:10   51.0   100    3.7   278      4.5   927.9    0.00       0    78.7
 243   22:20   51.5   100    3.7   266      5.3   927.8    0.00       0    78.5
 243   22:30   51.9    99    3.2   224      6.1   927.9    0.00       0    78.3
 243   22:40   51.0    98    2.5    52      5.1   927.9    0.00       0    78.4
 243   22:50   50.3    99    2.3    57      4.5   927.8    0.00       0    78.4
 243   23:00   51.7    96    1.6   203      3.8   927.9    0.00       0    78.2
 243   23:10   51.1    94    1.6   102      4.5   927.9    0.00       0    78.1
 243   23:20   50.5    97    2.3   126      4.9   928.0    0.00       0    78.0
 243   23:30   49.3   100    1.4   101      3.4   928.0    0.00       0    77.9
 243   23:40   49.3   100    2.8   145      4.2   928.1    0.00       0    77.7
 243   23:50   49.3   100    2.6    98      5.5   928.1    0.00       0    77.7
 244    0:00   49.2   100    3.7    99      6.5   928.0    0.00       0    77.6
 244    0:10   49.0   100    4.4    94      6.7   928.0    0.00       0    77.6
 244    0:20   48.9   104    4.3   117      7.1   927.9    0.00       0    77.5
 244    0:30   48.8   108    4.5   118      6.9   928.0    0.00       0    77.4
 244    0:40   48.7   108    5.1    88      6.9   928.1    0.00       0    77.5
 244    0:50   48.5   108    5.0    81      7.0   928.1    0.00       0    77.5
 244    1:00   48.8   109    2.2   234      4.5   928.2    0.00       0    77.2
 244    1:10   49.1   109    2.7   276      4.3   928.1    0.00       0    76.9
 244    1:20   49.3   101    2.1   268      3.0   928.0    0.00       0    76.8
 244    1:30   49.6   100    2.0   224      2.9   928.0    0.00       0    76.6
 244    1:40   49.6   100    4.0   227      5.7   928.2    0.00       0    76.4
 244    1:50   49.3   100    3.3   259      4.7   928.3    0.00       0    76.1
 244    2:00   49.2   100    4.7   290      6.5   928.3    0.00       0    76.1
 244    2:10   49.8    98    8.2   278     13.4   928.2    0.00       0    76.0
 244    2:20   49.7    96    9.8   270     13.6   928.2    0.00       0    75.7
 244    2:30   49.9    94    9.2   276     13.6   928.3    0.00       0    75.5
 244    2:40   49.9    94   10.1   266     14.0   928.3    0.00       0    75.3
 244    2:50   49.9    94    8.5   251     14.2   928.3    0.00       0    75.0
 244    3:00   49.9    95    5.8   264      8.2   928.3    0.00       0    75.0
 244    3:10   49.5    97    6.7   262      9.6   928.2    0.00       0    74.8
 244    3:20   49.2    99    6.0   264      8.6   928.3    0.00       0    74.8
 244    3:30   49.0   100    6.7   268      9.5   928.4    0.00       0    74.4
 244    3:40   48.8   100    5.9   302      7.5   928.5    0.00       0    74.3
 244    3:50   48.7    98    7.8   350     11.0   928.5    0.00       0    74.6
 244    4:00   49.1    95    6.8   348      9.0   928.5    0.00       0    74.6
 244    4:10   49.5    88    6.1   345      9.7   928.4    0.00       0    74.6
 244    4:20   49.7    82    5.9   306      9.2   928.4    0.00       0    74.3
 244    4:30   49.5    83    5.3   294      7.9   928.3    0.00       0    74.4
 244    4:40   48.7    87    5.7   271      7.6   928.2    0.00       0    74.5
 244    4:50   48.4    90    7.0   256      9.1   928.3    0.00       0    74.4
 244    5:00   47.8    93    7.4   256      9.6   928.4    0.00       0    74.1
 244    5:10   47.4    96    5.8   268      7.6   928.5    0.00       0    74.1
 244    5:20   47.0    98    5.9   284      6.9   928.5    0.00       0    74.1
 244    5:30   47.3    98    4.6   294      5.8   928.5    0.00       1    74.0
 244    5:40   47.5    97    3.3   311      4.3   928.6    0.00       4    73.9
 244    5:50   47.8    94    2.3   330      3.3   928.6    0.00       7    73.8
 244    6:00   48.1    93    1.7   295      2.2   928.6    0.00      10    73.7
 244    6:10   47.9    93    4.0   257      6.5   928.8    0.00      13    73.5
 244    6:20   47.5    95    4.3   246      5.8   928.8    0.00      17    73.1
 244    6:30   47.5    95    5.0   245      6.5   929.0    0.00     102    72.8
 244    6:40   47.8    94    4.8   253      6.1   929.2    0.00     119    72.7
 244    6:50   47.9    95    5.2   260      6.4   929.2    0.00      87    72.6
 244    7:00   48.4    96    4.3   264      6.1   929.4    0.00     117    72.5
 244    7:10   48.8    94    4.7   262      6.9   929.5    0.00     136    72.4
 244    7:20   49.0    92    5.3   262      7.7   929.5    0.00     167    72.0
 244    7:30   49.3    89    4.8   254      8.0   929.5    0.00     286    71.8
 244    7:40   49.5    87    3.4   243      5.6   929.5    0.00     415    71.6
 244    7:50   49.6    86    4.5   219      5.6   929.6    0.00     442    71.3
 244    8:00   49.9    85    3.2   215      4.7   929.8    0.00     475    71.1
 244    8:10   50.6    83    2.7   220      4.2   929.9    0.00     509    71.0
 244    8:20   51.1    81    1.8   219      3.5   930.2    0.00     535    71.0
 244    8:30   51.8    78    3.1   236      5.7   930.2    0.00     542    70.9
 244    8:40   51.9    75    5.1   236      8.6   930.3    0.00     611    70.7
 244    8:50   52.3    75    5.0   231     10.3   930.3    0.00     634    70.6
 244    9:00   52.3    74    5.4   230      9.3   930.2    0.00     667    70.4
 244    9:10   52.5    74    4.3   235      8.1   930.0    0.00     698    70.4
 244    9:20   53.3    72    3.3   226      5.7   930.0    0.00     725    70.3
 244    9:30   54.0    70    3.8   228      6.5   930.1    0.00     752    70.3
 244    9:40   54.2    70    3.3   218      6.4   930.1    0.00     771    70.2
 244    9:50   54.9    69    6.1   222     10.6   930.2    0.00     788    70.3
 244   10:00   53.7    71    7.7   233     10.8   930.4    0.00     807    70.1
 244   10:10   53.7    72    7.3   229     11.1   930.5    0.00     826    70.0
 244   10:20   54.0    71    8.3   231     14.0   930.7    0.00     844    69.9
 244   10:30   54.2    70    6.7   227      9.9   930.9    0.00     855    69.9
 244   10:40   55.3    68    7.0   227     12.3   930.8    0.00     864    69.9
 244   10:50   54.6    71    8.5   236     11.8   930.8    0.00     874    69.8
 244   11:00   54.9    72    7.7   234     12.1   930.8    0.00     887    69.9
 244   11:10   55.4    70    8.5   226     11.8   930.9    0.00     895    69.9
 244   11:20   55.1    70    6.4   227      9.9   931.0    0.00     901    69.9
 244   11:30   55.8    69    6.3   227     11.8   931.0    0.00     905    70.0
 244   11:40   55.3    70    7.8   230     11.2   931.0    0.00     905    70.0
 244   11:50   54.9    71    7.7   232     13.1   931.0    0.00     904    70.1
 244   12:00   55.0    72    6.8   226     11.8   931.0    0.00     904    70.2
 244   12:10   56.1    71    5.9   230      9.6   931.0    0.00     904    70.3
 244   12:20   56.7    71    4.7   218      8.3   930.8    0.00     902    70.4
 244   12:30   56.9    70    5.9   228     10.9   930.7    0.00     896    70.6
 244   12:40   57.7    70    8.1   227     11.0   930.6    0.00     889    70.8
 244   12:50   58.0    69    7.3   233     11.2   930.5    0.00     880    71.0
 244   13:00   57.2    70    7.5   224     11.3   930.5    0.00     870    71.2
 244   13:10   57.3    70    7.4   223     12.0   930.4    0.00     857    71.4
 244   13:20   57.5    71    6.3   232     10.4   930.4    0.00     844    71.7
 244   13:30   57.1    72    7.2   221     11.2   930.4    0.00     830    72.0
 244   13:40   57.3    73    8.2   232     12.5   930.4    0.00     807    72.3
 244   13:50   57.1    74    9.7   235     14.0   930.4    0.00     795    72.6
 244   14:00   56.6    77    8.4   234     12.7   930.4    0.00     739    73.0
 244   14:10   57.2    77    8.8   235     13.0   930.4    0.00     757    73.3

Return to Highlands Peak graphs page.


Western Regional Climate Center,wrcc@dri.edu